This is the latest recevied weather packets stored in our database for station/object N5PA. If no packets are shown the sender has not sent any weather packets the latest 10 day(s).
| Time | Temp. | Humidity | Pressure | Rain* | Wind** | Luminosity | Snow |
|---|---|---|---|---|---|---|---|
| 1777666806 | 12.22° C | 67% | 1013.7 hPa | 2.29 mm | - | 1032 W/m² | - |
| 1777666507 | 12.22° C | 68% | 1013.9 hPa | 2.29 mm | - | 1032 W/m² | - |
| 1777666207 | 12.22° C | 70% | 1013.5 hPa | 2.03 mm | - | 1032 W/m² | - |
| 1777665907 | 12.22° C | 70% | 1013.1 hPa | 2.03 mm | - | 1030 W/m² | - |
| 1777665607 | 12.78° C | 72% | 1013.6 hPa | 1.78 mm | - | 1032 W/m² | - |
| 1777665306 | 12.78° C | 72% | 1013.6 hPa | 1.52 mm | - | 1030 W/m² | - |
| 1777665007 | 13.33° C | 71% | 1013.7 hPa | 1.27 mm | - | 1032 W/m² | - |
| 1777664707 | 13.33° C | 72% | 1013.9 hPa | 1.27 mm | - | 1027 W/m² | - |
| 1777664407 | 13.33° C | 72% | 1014 hPa | 0.76 mm | - | 1032 W/m² | - |
| 1777664108 | 13.89° C | 68% | 1013.9 hPa | 0.51 mm | - | 1030 W/m² | - |
| 1777663806 | 13.89° C | 67% | 1014.1 hPa | 0.51 mm | - | 1032 W/m² | - |
| 1777663507 | 14.44° C | 68% | 1013.9 hPa | 0.25 mm | - | 1030 W/m² | - |
| 1777663207 | 14.44° C | 69% | 1014.1 hPa | 0.25 mm | - | 1028 W/m² | - |
| 1777662906 | 14.44° C | 70% | 1014 hPa | 0 mm | - | 1028 W/m² | - |
| 1777662607 | 14.44° C | 71% | 1013.8 hPa | 0 mm | - | 1028 W/m² | - |
| 1777662306 | 14.44° C | 71% | 1013.6 hPa | 0 mm | - | 1028 W/m² | - |
| 1777662007 | 14.44° C | 71% | 1013.9 hPa | 0 mm | - | 1028 W/m² | - |
| 1777661707 | 14.44° C | 72% | 1014.2 hPa | 0 mm | - | 1028 W/m² | - |
| 1777661407 | 14.44° C | 72% | 1014.3 hPa | 0 mm | - | 1030 W/m² | - |
| 1777661106 | 14.44° C | 72% | 1014.4 hPa | 0 mm | - | 1030 W/m² | - |
| 1777660808 | 14.44° C | 73% | 1014.3 hPa | 0 mm | - | 1030 W/m² | - |
| 1777660507 | 14.44° C | 73% | 1014.6 hPa | 0 mm | - | 1028 W/m² | - |
| 1777660207 | 14.44° C | 73% | 1014.7 hPa | 0 mm | - | 1025 W/m² | - |
| 1777659906 | 14.44° C | 74% | 1014.6 hPa | 0 mm | - | 1032 W/m² | - |
| 1777659607 | 14.44° C | 74% | 1014.4 hPa | 0 mm | - | 1032 W/m² | - |
* Rain latest hour (hover to see other rain measurements)
** Current wind speed in m/s (hover to see current wind gust speed)